Fort Meade, MD

1:26 AM EDT on April 27, 2017 (GMT -0400)
Tipton

Weather History for KFME - September, 2012

Change the Weather History Date:

Wednesday, September 12, 2012

  Actual Average (KBWI) Record (KBWI)
Temperature  
Mean Temperature 61 °F -  
Max Temperature 78 °F 81 °F 96 °F (1931)
Min Temperature 44 °F 59 °F 43 °F (1967)
Degree Days  
Heating Degree Days 4    
Growing Degree Days 11 (Base 50)    
Moisture  
Dew Point 50 °F    
Average Humidity 75    
Maximum Humidity 100    
Minimum Humidity 34    
Precipitation  
Precipitation 0.00 in - - ()
Sea Level Pressure  
Sea Level Pressure 30.36 in    
Wind  
Wind Speed 1 mph (SSE)    
Max Wind Speed 9 mph    
Max Gust Speed -    
Visibility 10 miles    
Events      
Averages and records for this station are not official NWS values.
T = Trace of Precipitation, MM = Missing Value Source: NWS Daily Summary

Daily Weather History Graph

Daily Weather History Graph

Search for Another Location

Airport or City:

Trip Planner

Search our weather history database for the weather conditions in past years. The results will help you decide how hot, cold, wet, or windy it might be!

Date:

Astronomy

Sep. 12, 2012 Rise Set
Actual Time 6:46 AM EDT 7:19 PM EDT
Civil Twilight 6:19 AM EDT 7:46 PM EDT
Nautical Twilight 5:47 AM EDT 8:17 PM EDT
Astronomical Twilight 5:14 AM EDT 8:50 PM EDT
Moon 3:02 AM EDT (9/12) 5:04 PM EDT (9/12)
Length of Visible Light 13h 27m
Length of Day
12h 33m
Waning Crescent, 14% of the Moon is Illuminated
Sep 12
Waning Crescent
Sep 15
New
Sep 22
First Quarter
Sep 29
Full
Oct 8
Last Quarter

Hourly Weather History & Observations

Time (EDT) Temp. Dew Point Humidity Pressure Visibility Wind Dir Wind Speed Gust Speed Precip Events Conditions
12:00 AM 51.8 °F 50.0 °F 94% 30.33 in 10.0 mi Calm Calm - N/A   Clear
12:42 AM 50.0 °F 50.0 °F 100% 30.32 in 10.0 mi Calm Calm - N/A   Clear
1:03 AM 50.0 °F 48.2 °F 94% 30.33 in 10.0 mi Calm Calm - N/A   Clear
1:24 AM 50.0 °F 48.2 °F 94% 30.33 in 10.0 mi Calm Calm - N/A   Clear
1:45 AM 50.0 °F 46.4 °F 87% 30.33 in 10.0 mi Calm Calm - N/A   Clear
2:06 AM 48.2 °F 46.4 °F 93% 30.33 in 10.0 mi Calm Calm - N/A   Clear
2:30 AM 48.2 °F 46.4 °F 93% 30.33 in 10.0 mi Calm Calm - N/A   Clear
2:51 AM 48.2 °F 46.4 °F 93% 30.34 in 10.0 mi Calm Calm - N/A   Clear
3:12 AM 46.4 °F 46.4 °F 100% 30.33 in 10.0 mi Calm Calm - N/A   Clear
3:33 AM 46.4 °F 46.4 °F 100% 30.33 in 10.0 mi Calm Calm - N/A   Clear
3:54 AM 46.4 °F 46.4 °F 100% 30.33 in 10.0 mi Calm Calm - N/A   Clear
4:15 AM 46.4 °F 44.6 °F 93% 30.33 in 10.0 mi Calm Calm - N/A   Clear
4:36 AM 46.4 °F 44.6 °F 93% 30.33 in 10.0 mi Calm Calm - N/A   Clear
4:57 AM 46.4 °F 44.6 °F 93% 30.34 in 10.0 mi Calm Calm - N/A   Clear
5:18 AM 46.4 °F 44.6 °F 93% 30.34 in 10.0 mi Calm Calm - N/A   Clear
5:42 AM 46.4 °F 44.6 °F 93% 30.34 in 10.0 mi Calm Calm - N/A   Clear
6:03 AM 46.4 °F 44.6 °F 93% 30.35 in 10.0 mi Calm Calm - N/A   Clear
6:24 AM 44.6 °F 44.6 °F 100% 30.36 in 10.0 mi Calm Calm - N/A   Clear
7:06 AM 44.6 °F 44.6 °F 100% 30.37 in 10.0 mi Calm Calm - N/A   Clear
7:27 AM 46.4 °F 44.6 °F 93% 30.37 in 10.0 mi Calm Calm - N/A   Clear
7:48 AM 46.4 °F 46.4 °F 100% 30.37 in 10.0 mi Calm Calm - N/A   Clear
8:30 AM 51.8 °F 51.8 °F 100% 30.38 in 10.0 mi Calm Calm - N/A   Clear
8:51 AM 55.4 °F 53.6 °F 94% 30.38 in 10.0 mi Calm Calm - N/A   Clear
9:12 AM 59.0 °F 55.4 °F 88% 30.39 in 10.0 mi Calm Calm - N/A   Clear
9:36 AM 62.6 °F 57.2 °F 82% 30.39 in 10.0 mi Calm Calm - N/A   Clear
9:57 AM 64.4 °F 55.4 °F 73% 30.40 in 10.0 mi Calm Calm - N/A   Clear
10:18 AM 68.0 °F 55.4 °F 64% 30.40 in 10.0 mi South 3.5 mph - N/A   Clear
10:39 AM 69.8 °F 55.4 °F 60% 30.39 in 10.0 mi Calm Calm - N/A   Clear
11:00 AM 71.6 °F 55.4 °F 57% 30.39 in 10.0 mi Calm Calm - N/A   Clear
11:21 AM 73.4 °F 53.6 °F 50% 30.39 in 10.0 mi Calm Calm - N/A   Clear
11:42 AM 73.4 °F 50.0 °F 44% 30.39 in 10.0 mi SSE 5.8 mph - N/A   Clear
12:03 PM 75.2 °F 51.8 °F 44% 30.38 in 10.0 mi SSE 6.9 mph - N/A   Clear
12:24 PM 75.2 °F 50.0 °F 41% 30.38 in 10.0 mi South 3.5 mph - N/A   Clear
12:45 PM 77.0 °F 51.8 °F 41% 30.38 in 10.0 mi SE 4.6 mph - N/A   Clear
1:06 PM 77.0 °F 51.8 °F 41% 30.37 in 10.0 mi South 5.8 mph - N/A   Clear
1:27 PM 77.0 °F 50.0 °F 39% 30.37 in 10.0 mi Calm Calm - N/A   Clear
1:48 PM 77.0 °F 50.0 °F 39% 30.37 in 10.0 mi SE 4.6 mph - N/A   Clear
2:12 PM 77.0 °F 50.0 °F 39% 30.36 in 10.0 mi Calm Calm - N/A   Clear
2:33 PM 77.0 °F 50.0 °F 39% 30.35 in 10.0 mi ENE 6.9 mph - N/A   Clear
2:54 PM 77.0 °F 50.0 °F 39% 30.35 in 10.0 mi South 4.6 mph - N/A   Clear
3:15 PM 78.8 °F 48.2 °F 34% 30.34 in 10.0 mi SSE 4.6 mph - N/A   Clear
3:36 PM 77.0 °F 46.4 °F 34% 30.34 in 10.0 mi South 3.5 mph - N/A   Clear
3:57 PM 77.0 °F 51.8 °F 41% 30.33 in 10.0 mi SE 5.8 mph - N/A   Clear
4:18 PM 77.0 °F 53.6 °F 44% 30.33 in 10.0 mi SE 9.2 mph - N/A   Clear
5:00 PM 73.4 °F 51.8 °F 47% 30.33 in 10.0 mi SE 9.2 mph - N/A   Clear
5:21 PM 73.4 °F 50.0 °F 44% 30.33 in 10.0 mi SE 6.9 mph - N/A   Clear
6:03 PM 71.6 °F 50.0 °F 46% 30.34 in 10.0 mi SE 6.9 mph - N/A   Clear
6:48 PM 68.0 °F 51.8 °F 56% 30.34 in 10.0 mi SE 4.6 mph - N/A   Clear
7:09 PM 64.4 °F 55.4 °F 73% 30.34 in 10.0 mi Calm Calm - N/A   Clear
7:30 PM 62.6 °F 55.4 °F 77% 30.34 in 10.0 mi Calm Calm - N/A   Clear
8:33 PM 59.0 °F 55.4 °F 88% 30.36 in 10.0 mi Calm Calm - N/A   Clear
8:54 PM 59.0 °F 55.4 °F 88% 30.36 in 10.0 mi Calm Calm - N/A   Clear
9:15 PM 57.2 °F 55.4 °F 94% 30.36 in 10.0 mi Calm Calm - N/A   Clear
9:36 PM 57.2 °F 55.4 °F 94% 30.37 in 10.0 mi Calm Calm - N/A   Clear
9:57 PM 55.4 °F 53.6 °F 94% 30.37 in 10.0 mi Calm Calm - N/A   Clear
10:18 PM 55.4 °F 53.6 °F 94% 30.37 in 10.0 mi Calm Calm - N/A   Clear
10:42 PM 55.4 °F 53.6 °F 94% 30.37 in 10.0 mi Calm Calm - N/A   Clear
11:03 PM 53.6 °F 51.8 °F 94% 30.37 in 10.0 mi Calm Calm - N/A   Clear
11:24 PM 53.6 °F 51.8 °F 94% 30.37 in 10.0 mi Calm Calm - N/A   Clear
11:45 PM 53.6 °F 51.8 °F 94% 30.37 in 10.0 mi Calm Calm - N/A   Clear